Pium, Brazil
Current Conditions -  °F | °C
As of 9:00 AM on Friday 24 Oct 2014 (Local Time) from SBPJ Reporting Station
Scattered Clouds Scattered Clouds  
Wind Chill: 81°   Ceiling: Unl
Heat Index: 85°   Visibility: 6mi
Dew Point: 72°   Wind: 5mph
Humidity: 74%   Direction: 220°SW
Pressure: 29.97"   Gusts: NA
Location:  10.44°S, 49.18°W
Report Text: SBPJ 241200Z 22004KT 9999 SCT025 SCT100 27/22 Q1015
Loading
Personal Weather Stations






























Interactive Weather Map
Tropical Storm Tracking
New forecast layout! Learn more

10-Day Weather Forecast

Advertisements
Track Severe Weather on mobile